Flag for Philippines Weather past 2 weeks in Olongapo, Philippines

Now
84 °F

Mostly cloudy.


Feels Like: 94 °F
Forecast: 77 / 93 °F
Wind: 3 mph from North

Location: Subic Bay Weather Station


UV Index: 7 (High)

Visibility: N/A


Pressure: 29.77 "Hg

Humidity: 79%

Dew point: 77 °F

Location of OlongapoLocation

Historic Weather in Olongapo

°F

Olongapo temperature yesterday

Maximum temperature yesterday: 93 °F (at 2:00 PM)
Minimum temperature yesterday: 77 °F (at 2:00 AM)
Average temperature yesterday: 85 °F

Past Weeks' High & Low Weather Summary

 TemperatureHumidityPressure
High99 °F (Apr 7, 3:00 PM)94% (Apr 14, 11:00 PM)29.95 "Hg (Apr 14, 11:00 PM)
Low77 °F (Apr 2, 2:00 AM)33% (Apr 7, 3:00 PM)29.74 "Hg (Apr 2, 3:00 PM)
Average85 °F67%29.83 "Hg
* Reported Apr 1 5:00 PM — Apr 16 5:00 PM, Olongapo, Weather by CustomWeather, © 2014

Note: Actual official high and low records may vary slightly from our data, if they occured in-between our weather recording intervals... More about our weather records

Advertising

Historic Weather Conditions — Data for Previous 24 hours

 ConditionsComfort  
Time TempWeatherWind HumidityBarometerVisibility
5:00 PM
Apr 16
84 °FCloudy.1 mph70%29.77 "HgN/A
4:00 PM86 °FMostly cloudy.9 mph66%29.74 "HgN/A
3:00 PM86 °FMostly cloudy.13 mph75%29.74 "HgN/A
2:00 PM95 °FBroken clouds.9 mph44%29.77 "HgN/A
1:00 PM93 °FPartly sunny.13 mph44%29.80 "HgN/A
12:00 PM91 °FBroken clouds.14 mph46%29.83 "HgN/A
11:00 AM88 °FBroken clouds.14 mph52%29.83 "HgN/A
10:00 AM86 °FScattered clouds.15 mph55%29.86 "HgN/A
9:00 AM86 °FPartly sunny.16 mph55%29.86 "HgN/A
7:00 AM81 °FBroken clouds.2 mph66%29.83 "HgN/A
6:00 AM79 °FBroken clouds.2 mph70%29.80 "HgN/A
5:00 AM77 °FPassing clouds.5 mph83%29.80 "HgN/A
2:00 AM81 °FPassing clouds.5 mph66%29.80 "HgN/A
1:00 AM81 °FPassing clouds.7 mph66%29.83 "HgN/A
12:00 AM81 °FPassing clouds.7 mph66%29.83 "HgN/A
11:00 PM
Apr 15
81 °FPassing clouds.7 mph66%29.86 "HgN/A
8:00 PM84 °FPassing clouds.12 mph55%29.83 "HgN/A
7:00 PM86 °FPartly cloudy.9 mph52%29.80 "HgN/A
6:00 PM88 °FBroken clouds.10 mph52%29.80 "HgN/A
Weather by CustomWeather, © 2014

See weather overview